"Pseudo-MPEC" for C913PM2

Created 2023 Mar 21 11:22:09 UT using Find_Orb

Click here for an explanation of pseudo-MPECs

 
 Astrometry: 
     C913PM2*1C2023 03 18.47647512 34 16.615+26 32 10.14   ~3IC7 21.10GVNEOCPG96
     C913PM2 1C2023 03 18.48161212 34 16.036+26 32 21.37   ~3IC7 21.20GVNEOCPG96
     C913PM2 1C2023 03 18.48674512 34 15.496+26 32 32.53   ~3IC7 20.73GVNEOCPG96
     C913PM2 1C2023 03 18.49188212 34 14.912+26 32 43.66   ~3IC7 20.73GVNEOCPG96
     C913PM2 1C2023 03 18.50338812 34 13.631+26 33 09.76   ~3ICb 20.93GVNEOCPG96
     C913PM2 1C2023 03 18.50456812 34 13.487+26 33 11.77   ~3ICb 20.56GVNEOCPG96
     C913PM2 1C2023 03 18.50533012 34 13.418+26 33 13.72   ~3ICb 21.10GVNEOCPG96
     C913PM2 1C2023 03 18.50672112 34 13.253+26 33 17.42   ~3ICb 20.56GVNEOCPG96
     C913PM2 1C2023 03 19.11106 12 33 07.63 +26 55 55.7    ~3J8q 21.3 VXNEOCP033
     C913PM2 1C2023 03 19.11268 12 33 07.44 +26 55 59.4    ~3J8q 21.6 VXNEOCP033
     C913PM2 1C2023 03 19.11430 12 33 07.23 +26 56 03.3    ~3J8q 21.6 VXNEOCP033
     C913PM2 KC2023 03 19C*m)g277aggbe0YLPd_*AstrometryXsoglLM[?Y$WL-D8x5ye+fH36
     C913PM2 KC2023 03 19.22667812 32 55.784+27 00 22.39   ~3J5q 21.07GVNEOCPI52
     C913PM2 KC2023 03 19.22812712 32 55.640+27 00 25.81   ~3J5q 20.93GVNEOCPI52
     C913PM2 KC2023 03 19.22958512 32 55.453+27 00 28.08   ~3J5q 21.96GVNEOCPI52
     C913PM2 KC2023 03 19.23104912 32 55.295+27 00 32.08   ~3J5q 20.47GVNEOCPI52
     C913PM2 KC2023 03 19u1q_pU=iJ*6P1Ko3*Mj04iI3XR[]G9orReMI/Q-E'pQ,!$P19?4LH36
     C913PM2 KC2023 03 19R7$3Ub4I1-!v4%+f2Pm+!Dk#Ag;BmmZHbHqsUMJDRU0`##;Hq%D^H36
     C913PM2 KC2023 03 19u_:q,aq@0Zh[-x.1B:ARY'/6v1_mj)+?B6(a.HqBjS)h;;dV\i=Y734
     C913PM2 KC2023 03 199k,\!7UC7l%yTMJvrW%`s@K)ALsG+29$O%V^#GP(^0KZ\\:B/ZG8734
     C913PM2 KC2023 03 197C0DJw7N;@-K%0M/mMnWR(redacted;95B5xW7clickkhereHZ/2734
     C913PM2 1C2023 03 20.02054 12 31 24.24 +27 30 37.1    ~3K77 20.8 VXNEOCP033
     C913PM2 1C2023 03 20.02216 12 31 24.04 +27 30 40.7    ~3K77 20.9 VXNEOCP033
     C913PM2 KC2023 03 21.04677712 29 20.56 +28 10 30.3    ~3L1b 20.7 GXNEOCPI93
     C913PM2 KC2023 03 21.05083012 29 20.06 +28 10 39.7    ~3L1b 20.7 GXNEOCPI93
     C913PM2 KC2023 03 21.05447612 29 19.59 +28 10 48.4    ~3L1b 20.7 GXNEOCPI93
     C913PM2 KC2023 03 21XY/pa%joPoY#%+M77U*R@%/1p1E%C#_-M2ob3)@l/%sG)QC[KHD6H21
     C913PM2 KC2023 03 21rU[wforx_6+f7=*`ZriTSY8Ou+rV1tGl/explanation)j-BZm.qH21

Station data:
(033) Karl Schwarzschild Observatory, Tautenburg  (N50.980137 E11.711240)
   Germany.  Observers S. Melnikov, C. Hoegner, B. Stecklum. Measurer B.
   Stecklum. 1.34-m f/3 Schmidt + CCD.
(734) Farpoint Observatory, Eskridge  (N38.890104 W96.001400)  US/Kansas.
   Observer G. Hug. 0.69-m reflector + CCD.
(G96) Mt. Lemmon Survey  (N32.442751 W110.788720)  US/Arizona.  Observers T.
   A. Pruyne, B. M. Africano, E. J. Christensen, G. A. Farneth, D. C. Fuls,
   A. R. Gibbs, A. D. Grauer, H. Gröller, J. A. Johnson, R. A. Kowalski, S.
   M. Larson, G. J. Leonard, D. Rankin, R. L. Seaman, F. C. Shelly, K. W.
   Wierzchoś. 1.5-m reflector + 10K CCD.
(H21) Astronomical Research Observatory, Westfield  (N39.483054 W87.968270)
   US/Illinois.  Observer R. Holmes. Measurers S. Foglia, L. Buzzi, T.
   Linder, R. Holmes. 0.76-m f/3.0 astrograph + CCD0.81-m f/4.0 astrograph +
   CCD0.61-m f/4.5 astrograph + CCD0.40-m f/5.32 astrograph + CCD.
(H36) Sandlot Observatory, Scranton  (N38.797690 W95.706400)  US/Kansas.
   Observer G. Hug. 0.56-m reflector + CCD.
(I52) Steward Observatory, Mt. Lemmon Station  (N32.442544 W110.788920)
   US/Arizona.  Observers T. A. Pruyne, B. M. Africano, E. J. Christensen, G.
   A. Farneth, D. C. Fuls, A. R. Gibbs, A. D. Grauer, H. Gröller, J. A.
   Johnson, R. A. Kowalski, S. M. Larson, G. J. Leonard, D. Rankin, R. L.
   Seaman, F. C. Shelly, K. W. Wierzchoś. 1.0-m reflector + CCD.
(I93) St Pardon de Conques  (N44.558708 W0.203000)  France.  Observers F.
   Losse, W. D'Anna. Measurer F. Losse. 0.40-m f/3.7 reflector + CCD.

Orbital elements:  C913PM2
   Perihelion 2023 Jun 15.28772 +/- 0.194 TT =  6:54:18 (JD 2460110.78772)
Epoch 2023 Mar 21.0 TT = JDT 2460024.5   Earth MOID: 0.1701   Ve: 0.0798
M 335.24779725 +/- 0.7              Me: 0.0984                   AutoNEOCP
n   0.28685662 +/- 0.00782          Peri.  197.58615 +/- 0.39
a   2.27698128 +/- 0.0414           Node   100.00423 +/- 0.55
e   0.7635327 +/- 0.00602           Incl.   10.52035 +/- 0.08
P   3.44                   H 20.42  G  0.15   U  9.5
q 0.53843156 +/- 0.00398    Q 4.01553099 +/- 0.0866       (J2000 ecliptic)
From 28 observations 2023 Mar. 18-21; mean residual 0".26
Residuals in arcseconds: 
230318 G96  .03+  .10+    230319 033  .24-  .42+    230319 734  .30-  .45-    
230318 G96  .09-  .03-    230319 H36  .05+  .31+    230320 033  .21+  .15+    
230318 G96  .30+  .22-    230319 I52  .25-  .19+    230320 033  .16+  .02+    
230318 G96  .10+  .44-    230319 I52  .08+  .29+    230321 I93  .27-  .05+    
230318 G96  .01-  .23+    230319 I52  .15-  .79-    230321 I93  .04+  .07-    
230318 G96  .20-  .37-    230319 I52  .02+  .15-    230321 I93  .05+  .07+    
230318 G96  .01+  .10-    230319 H36  .36+  .54+    230321 H21  .14-  .04-    
230318 G96  .15-  .53+    230319 H36  .12+  .49+    230321 H21  .19+  .03-    
230319 033  .14+  .11+    230319 734  .10-  .65-    
230319 033  .08+  .16+    230319 734  .06-  .36-    

Ephemerides (geocentric):
Date (UTC) HH   RA             Dec           delta  r     elong  mag " sig PA
---- --------  ------------   ------------  ------ ------ -----  --- --------
2023 03 21 11  12 28 29.089   +28 26 46.59  .56312 1.5124 150.7 21.1 .141  68
2023 03 21 12  12 28 23.799   +28 28 25.39  .56269 1.5119 150.7 21.1 .152  66
2023 03 21 13  12 28 18.498   +28 30 04.27  .56226 1.5115 150.6 21.1 .163  64
2023 03 21 14  12 28 13.184   +28 31 43.22  .56183 1.5110 150.6 21.1 .174  62
2023 03 21 15  12 28 07.859   +28 33 22.24  .56140 1.5105 150.6 21.1 .186  61
2023 03 21 16  12 28 02.521   +28 35 01.34  .56097 1.5100 150.6 21.1 .198  60
2023 03 21 17  12 27 57.171   +28 36 40.51  .56054 1.5095 150.5 21.1 .211  58
2023 03 21 18  12 27 51.809   +28 38 19.75  .56011 1.5090 150.5 21.1 .224  57
2023 03 21 19  12 27 46.435   +28 39 59.06  .55969 1.5085 150.5 21.1 .237  56
2023 03 21 20  12 27 41.048   +28 41 38.45  .55926 1.5080 150.4 21.1 .251  55
2023 03 21 21  12 27 35.650   +28 43 17.91  .55883 1.5075 150.4 21.1 .265  54
2023 03 21 22  12 27 30.239   +28 44 57.44  .55841 1.5070 150.4 21.1 .279  54
2023 03 21 23  12 27 24.815   +28 46 37.05  .55798 1.5065 150.3 21.1 .294  53
2023 03 22 00  12 27 19.380   +28 48 16.73  .55755 1.5061 150.3 21.1 .309  52
2023 03 22 01  12 27 13.932   +28 49 56.47  .55713 1.5056 150.3 21.1 .324  51
2023 03 22 02  12 27 08.472   +28 51 36.30  .55671 1.5051 150.2 21.1 .340  51
2023 03 22 03  12 27 03.000   +28 53 16.19  .55628 1.5046 150.2 21.1 .356  50
2023 03 22 04  12 26 57.515   +28 54 56.15  .55586 1.5041 150.2 21.1 .372  50
2023 03 22 05  12 26 52.018   +28 56 36.19  .55544 1.5036 150.1 21.1 .389  49
2023 03 22 06  12 26 46.508   +28 58 16.29  .55501 1.5031 150.1 21.1 .406  49
2023 03 22 07  12 26 40.986   +28 59 56.47  .55459 1.5026 150.1 21.1 .423  48
2023 03 22 08  12 26 35.452   +29 01 36.72  .55417 1.5021 150.0 21.1 .441  48
2023 03 22 09  12 26 29.905   +29 03 17.04  .55375 1.5016 150.0 21.0 .459  47
2023 03 22 10  12 26 24.346   +29 04 57.43  .55333 1.5011 150.0 21.0 .477  47
2023 03 22 11  12 26 18.774   +29 06 37.90  .55291 1.5006 149.9 21.0 .496  46
2023 03 22 12  12 26 13.190   +29 08 18.43  .55249 1.5002 149.9 21.0 .515  46
2023 03 22 13  12 26 07.593   +29 09 59.03  .55207 1.4997 149.9 21.0 .534  46
2023 03 22 14  12 26 01.984   +29 11 39.70  .55165 1.4992 149.8 21.0 .554  45
2023 03 22 15  12 25 56.362   +29 13 20.45  .55123 1.4987 149.8 21.0 .574  45
2023 03 22 16  12 25 50.728   +29 15 01.26  .55081 1.4982 149.8 21.0 .594  45
2023 03 22 17  12 25 45.081   +29 16 42.14  .55039 1.4977 149.7 21.0 .614  44
2023 03 22 18  12 25 39.422   +29 18 23.10  .54997 1.4972 149.7 21.0 .635  44
2023 03 22 19  12 25 33.750   +29 20 04.12  .54956 1.4967 149.7 21.0 .657  44
2023 03 22 20  12 25 28.065   +29 21 45.21  .54914 1.4962 149.6 21.0 .678  43
2023 03 22 21  12 25 22.368   +29 23 26.37  .54873 1.4957 149.6 21.0 .700  43
2023 03 22 22  12 25 16.658   +29 25 07.60  .54831 1.4952 149.6 21.0 .722  43
2023 03 22 23  12 25 10.935   +29 26 48.90  .54789 1.4947 149.5 21.0 .745  43
2023 03 23 00  12 25 05.200   +29 28 30.27  .54748 1.4942 149.5 21.0 .767  42
2023 03 23 01  12 24 59.451   +29 30 11.71  .54707 1.4937 149.5 21.0 .791  42
2023 03 23 02  12 24 53.691   +29 31 53.21  .54665 1.4932 149.4 21.0 .814  42
2023 03 23 03  12 24 47.917   +29 33 34.79  .54624 1.4928 149.4 21.0 .838  42
2023 03 23 04  12 24 42.131   +29 35 16.43  .54583 1.4923 149.4 21.0 .862  41
2023 03 23 05  12 24 36.331   +29 36 58.14  .54541 1.4918 149.3 21.0 .886  41
2023 03 23 06  12 24 30.519   +29 38 39.92  .54500 1.4913 149.3 21.0 .911  41
2023 03 23 07  12 24 24.695   +29 40 21.77  .54459 1.4908 149.2 21.0 .936  41
2023 03 23 08  12 24 18.857   +29 42 03.68  .54418 1.4903 149.2 21.0 .962  40
2023 03 23 09  12 24 13.006   +29 43 45.67  .54377 1.4898 149.2 21.0 .987  40
2023 03 23 10  12 24 07.143   +29 45 27.72  .54336 1.4893 149.1 21.0 1.01  40